Palacios, TX

4:04 AM CDT on June 28, 2017 (GMT -0500)
Palacios Municipal

Weather History for KPSX - November, 2010

Change the Weather History Date:

Monday, November 1, 2010

  Actual Average Record
Temperature  
Mean Temperature 78 °F -  
Max Temperature 84 °F 77 °F 88 °F (1978)
Min Temperature 75 °F 56 °F 36 °F (1949)
Cooling Degree Days 14    
Growing Degree Days 28 (Base 50)    
Moisture  
Dew Point 74 °F    
Average Humidity 88    
Maximum Humidity 96    
Minimum Humidity 74    
Precipitation  
Precipitation 0.00 in - - ()
Sea Level Pressure  
Sea Level Pressure 29.99 in    
Wind  
Wind Speed 8 mph (South)    
Max Wind Speed 15 mph    
Max Gust Speed 21 mph    
Visibility 6 miles    
Events      
Averages and records for this station are not official NWS values.
T = Trace of Precipitation, MM = Missing Value Source: NWS Daily Summary

Daily Weather History Graph

Daily Weather History Graph

Search for Another Location

Airport or City:

Trip Planner

Search our weather history database for the weather conditions in past years. The results will help you decide how hot, cold, wet, or windy it might be!

Date:

Astronomy

Nov. 01, 2010 Rise Set
Actual Time 7:37 AM CDT 6:39 PM CDT
Civil Twilight 7:12 AM CDT 7:03 PM CDT
Nautical Twilight 6:44 AM CDT 7:31 PM CDT
Astronomical Twilight 6:17 AM CDT 7:59 PM CDT
Moon 2:39 AM CDT (11/1) 3:26 PM CDT (11/1)
Length of Visible Light 11h 51m
Length of Day
11h 02m
Waning Crescent, 26% of the Moon is Illuminated
Nov 1
Waning Crescent
Nov 5
New
Nov 13
First Quarter
Nov 21
Full
Nov 28
Last Quarter

Hourly Weather History & Observations

Time (CDT) Temp. Heat Index Dew Point Humidity Pressure Visibility Wind Dir Wind Speed Gust Speed Precip Events Conditions
12:53 AM 75.9 °F - 73.9 °F 94% 29.98 in 6.0 mi South 8.1 mph - N/A   Clear
1:53 AM 75.9 °F - 73.9 °F 94% 29.98 in 6.0 mi South 8.1 mph - N/A   Clear
2:53 AM 75.9 °F - 73.9 °F 94% 29.98 in 6.0 mi South 8.1 mph - N/A   Clear
3:53 AM 75.0 °F - 73.9 °F 96% 29.96 in 6.0 mi South 6.9 mph - N/A   Clear
4:53 AM 75.0 °F - 73.0 °F 94% 29.96 in 5.0 mi South 5.8 mph - N/A   Clear
5:53 AM 75.9 °F - 73.9 °F 94% 29.98 in 6.0 mi SSW 3.5 mph - N/A   Clear
6:53 AM 75.0 °F - 73.9 °F 96% 29.99 in 5.0 mi South 3.5 mph - N/A   Clear
7:53 AM 75.0 °F - 73.9 °F 96% 30.00 in 4.0 mi SSW 5.8 mph - N/A   Clear
8:53 AM 77.0 °F - 75.0 °F 94% 30.02 in 5.0 mi SSW 4.6 mph - N/A   Clear
9:53 AM 77.0 °F - 73.9 °F 90% 30.04 in 6.0 mi South 8.1 mph - N/A   Clear
10:53 AM 80.1 °F 84.2 °F 73.0 °F 79% 30.04 in 6.0 mi SSW 9.2 mph - N/A   Haze
11:53 AM 81.0 °F 86.7 °F 75.0 °F 82% 30.03 in 6.0 mi SSW 10.4 mph - N/A   Haze
12:53 PM 82.0 °F 88.6 °F 75.0 °F 79% 30.01 in 7.0 mi SSW 12.7 mph - N/A   Clear
1:53 PM 82.9 °F 89.4 °F 73.9 °F 74% 29.99 in 7.0 mi South 12.7 mph 20.7 mph N/A   Clear
2:53 PM 82.9 °F 89.4 °F 73.9 °F 74% 29.97 in 7.0 mi South 12.7 mph - N/A   Clear
3:53 PM 82.9 °F 89.4 °F 73.9 °F 74% 29.96 in 6.0 mi South 15.0 mph 20.7 mph N/A   Haze
4:53 PM 82.0 °F 88.6 °F 75.0 °F 79% 29.94 in 5.0 mi South 15.0 mph - N/A   Haze
5:53 PM 80.1 °F 85.1 °F 75.0 °F 85% 29.95 in 5.0 mi South 11.5 mph - N/A   Haze
6:53 PM 79.0 °F - 75.0 °F 88% 29.97 in 4.0 mi South 5.8 mph - N/A   Clear
7:53 PM 77.0 °F - 73.9 °F 90% 29.98 in 5.0 mi South 5.8 mph - N/A   Clear
8:53 PM 77.0 °F - 75.0 °F 94% 30.00 in 5.0 mi SSE 3.5 mph - N/A   Clear
9:53 PM 78.1 °F - 75.0 °F 90% 29.99 in 5.0 mi SSE 9.2 mph - N/A   Clear
10:53 PM 78.1 °F - 75.0 °F 90% 29.98 in 6.0 mi SSE 11.5 mph - N/A   Clear
11:53 PM 77.0 °F - 75.0 °F 94% 29.97 in 5.0 mi SSE 5.8 mph - N/A   Clear